SP6TSE-13 Weather Reports


time (UTC)temp
C
wind
direction
speed
KPH
gust
KPH
rain 1hr
cm
rain 24hr
cm
rain mn
cm
humidity
%
barometer
mb
20260504150255 24 25.7 51.5 0.00 0.00 0.00 36 987.2
20260504141255 -17 25.7 51.5 0.00 0.00 0.00
20260504140255 -17 25.7 51.5 0.00 0.00 0.00
20260504130255 27 25.7 51.5 0.00 0.00 0.00 33 988.2
20260504120255 24 25.7 64.4 0.00 0.00 0.00 34 988.8
20260504110255 21 25.7 51.5 0.00 0.00 0.00 47 989.9
20260504100255 21 25.7 51.5 0.00 0.00 0.00 47 989.9
20260504081255 -17 25.7 51.5 0.00 0.00 0.00
20260504080255 -17 25.7 51.5 0.00 0.00 0.00
20260504070255 -17 25.7 51.5 0.00 0.00 0.00
20260504050255 15 25.7 64.4 0.00 0.00 0.00 44 989.0
20260504045255 15 25.7 64.4 0.00 0.00 0.00 44 989.0
20260504044255 15 25.7 64.4 0.00 0.00 0.00 44 989.0
20260504043255 15 25.7 64.4 0.00 0.00 0.00 44 989.0
20260504042255 15 25.7 64.4 0.00 0.00 0.00 44 989.0
20260504041255 15 25.7 64.4 0.00 0.00 0.00 44 989.0
20260504040255 15 25.7 64.4 0.00 0.00 0.00 44 989.0
20260504035255 15 25.7 64.4 0.00 0.00 0.00 44 989.0
20260504034255 15 25.7 64.4 0.00 0.00 0.00 43 989.1
20260504033255 15 25.7 64.4 0.00 0.00 0.00 43 989.1
20260504032254 15 38.6 64.4 0.00 0.00 0.00 43 989.1
20260504031255 15 38.6 64.4 0.00 0.00 0.00 43 989.1
20260504030255 16 38.6 64.4 0.00 0.00 0.00 41 987.7
20260504025255 16 38.6 64.4 0.00 0.00 0.00 41 987.7
20260504024255 16 38.6 64.4 0.00 0.00 0.00 41 987.7
20260504023255 16 38.6 64.4 0.00 0.00 0.00 41 987.7
20260504022255 16 38.6 64.4 0.00 0.00 0.00 41 987.7
20260504021256 16 38.6 64.4 0.00 0.00 0.00 41 987.7
20260504020255 16 38.6 77.2 0.00 0.00 0.00 41 987.7
20260504015255 16 38.6 77.2 0.00 0.00 0.00 41 987.7
20260504014255 16 38.6 77.2 0.00 0.00 0.00 41 987.7
20260504013255 16 38.6 77.2 0.00 0.00 0.00 40 987.6
20260504012255 16 38.6 77.2 0.00 0.00 0.00 40 987.6
20260504011254 16 38.6 77.2 0.00 0.00 0.00 40 987.6
20260504010255 16 38.6 77.2 0.00 0.00 0.00 40 987.6
20260504005255 18 38.6 77.2 0.00 0.00 0.00 39 988.1
20260504004255 18 38.6 77.2 0.00 0.00 0.00 39 988.1
20260504003255 18 38.6 77.2 0.00 0.00 0.00 39 988.1
20260504002255 18 38.6 77.2 0.00 0.00 0.00 39 988.1
20260504001255 18 38.6 77.2 0.00 0.00 0.00 39 988.1
20260504000255 18 38.6 77.2 0.00 0.00 0.00 39 988.1
20260503235255 18 38.6 77.2 0.00 0.00 0.00 39 988.1
20260503234255 18 38.6 77.2 0.00 0.00 0.00 39 988.1
20260503233255 18 38.6 77.2 0.00 0.00 0.00 39 988.1
20260503232255 18 38.6 77.2 0.00 0.00 0.00 39 988.1
20260503231255 18 38.6 77.2 0.00 0.00 0.00 39 988.1
20260503230254 18 38.6 77.2 0.00 0.00 0.00 39 988.1
20260503225255 18 38.6 77.2 0.00 0.00 0.00 40 988.6
20260503224255 18 38.6 77.2 0.00 0.00 0.00 40 988.6
20260503223255 18 38.6 77.2 0.00 0.00 0.00 40 988.6
20260503222255 18 38.6 77.2 0.00 0.00 0.00 40 988.6
20260503221255 18 38.6 77.2 0.00 0.00 0.00 40 988.6
20260503220254 18 38.6 77.2 0.00 0.00 0.00 40 988.6
20260503215255 18 38.6 77.2 0.00 0.00 0.00 40 988.6
20260503214255 18 38.6 77.2 0.00 0.00 0.00 40 988.6
20260503213255 18 38.6 77.2 0.00 0.00 0.00 40 988.6
20260503212255 18 38.6 77.2 0.00 0.00 0.00 38 988.9
20260503211255 18 38.6 77.2 0.00 0.00 0.00 38 988.9
20260503210255 18 38.6 64.4 0.00 0.00 0.00 38 988.9
20260503205255 18 38.6 64.4 0.00 0.00 0.00 38 988.9
20260503204255 17 38.6 64.4 0.00 0.00 0.00 40 989.1
20260503203255 17 38.6 64.4 0.00 0.00 0.00 40 989.1
20260503202255 17 38.6 64.4 0.00 0.00 0.00 40 989.1
20260503201255 17 38.6 64.4 0.00 0.00 0.00 40 989.1
20260503200254 20 38.6 77.2 0.00 0.00 0.00 35 988.4
20260503195255 20 38.6 77.2 0.00 0.00 0.00 35 988.4
20260503194255 20 38.6 77.2 0.00 0.00 0.00 35 988.4
20260503193255 20 38.6 77.2 0.00 0.00 0.00 35 988.4
20260503192255 20 38.6 77.2 0.00 0.00 0.00 35 988.4
20260503191254 20 38.6 77.2 0.00 0.00 0.00 35 988.4
20260503190254 20 38.6 77.2 0.00 0.00 0.00 35 988.4
20260503185255 20 38.6 77.2 0.00 0.00 0.00 35 988.4
20260503184255 20 38.6 77.2 0.00 0.00 0.00 35 988.4
20260503183254 20 38.6 77.2 0.00 0.00 0.00 35 988.4
20260503182255 20 38.6 77.2 0.00 0.00 0.00 35 988.4
20260503181255 20 38.6 77.2 0.00 0.00 0.00 35 988.4
20260503180255 20 51.5 90.1 0.00 0.00 0.00 35 988.4
20260503175255 23 51.5 90.1 0.00 0.00 0.00 32 988.4
20260503174255 23 51.5 90.1 0.00 0.00 0.00 32 988.4
20260503173255 23 51.5 90.1 0.00 0.00 0.00 32 988.4
20260503172255 23 51.5 90.1 0.00 0.00 0.00 32 988.4
20260503171255 26 51.5 90.1 0.00 0.00 0.00 23 988.8
20260503170255 26 51.5 103.0 0.00 0.00 0.00 23 988.8